Weather Roundup
Issued by NWS Springfield, MO

Home | Current Version | Previous Version | Text Only | Print | Product List | Glossary On
Versions: 1 2 3 4 5 6 7 8 9 10 11 12 13 14 15 16 17 18 19 20 21 22 23 24 25 26 27 28 29 30 31 32 33 34 35 36 37 38 39 40 41 42 43 44 45 46 47 48 49 50
000
NZUS99 KSGF 190357
HRRSGF

HOURLY WEATHER
NATIONAL WEATHER SERVICE SPRINGFIELD MO
1100 PM CDT WED APR 18 2018

......SGF CWA......

CITY           SKY/WX    TMP DP  RH WIND       PRES   REMARKS
SPRINGFIELD    CLEAR     41  29  62 NW6       30.16S
JOPLIN         CLEAR     43  30  60 NW10      30.22R
WEST PLAINS    CLEAR     43  27  53 NW10G22   30.14R
ROLLA          CLOUDY    41  28  60 W17G25    30.12S

......SURROUNDING SGF CWA......

CITY           SKY/WX    TMP DP  RH WIND       PRES   REMARKS
CHANUTE        CLEAR     42  30  62 NW7       30.24R
PARSONS        PTCLDY    40  30  67 N6        30.25R
COFFEYVILLE    CLEAR     44  30  57 NW7       30.24R
EMPORIA        CLEAR     39  26  59 N10       30.26R WCI  32
HARRISON AR    CLEAR     46  30  53 NW10      30.17R

......KANSAS AND MISSOURI......

CITY           SKY/WX    TMP DP  RH WIND       PRES   REMARKS
KANSAS CTY INT CLOUDY    38  26  62 NW8       30.22R WCI  32
SEDALIA        CLOUDY    40  27  59 NW18G29   30.20  WCI  31
ST JOSEPH      CLOUDY    38  30  73 NW6       30.22S WCI  33
ST LOUIS       CLOUDY    41  25  53 NW18G29   30.09R
KIRKSVILLE     CLOUDY    36  28  75 NW15G21   30.15R WCI  26
WICHITA        CLEAR     48  30  49 N10       30.25R
TOPEKA         CLEAR     36  27  69 NW7       30.26R WCI  30
OLATHE         CLEAR     36  25  64 NW7       30.22R WCI  30

......TENNESSEE......

CITY           SKY/WX    TMP DP  RH WIND       PRES   REMARKS
MEMPHIS        NOT AVBL
NASHVILLE      CLOUDY    64  55  72 W12       29.89R

......ARKANSAS.......

CITY           SKY/WX    TMP DP  RH WIND       PRES   REMARKS
FAYETTEVILLE   CLEAR     46  29  51 N8        30.20R
FT SMITH       CLEAR     57  31  37 N16G29    30.19R
LITTLE ROCK    FAIR      64  36  35 NW10      30.07R

......OKLAHOMA.......

CITY           SKY/WX    TMP DP  RH WIND       PRES   REMARKS
TULSA          CLEAR     48  30  49 N8        30.23R
PONCA CITY     CLEAR     44  26  49 CALM      30.26R
MCALESTER      PTCLDY    58  32  37 N12       30.22R
OKLAHOMA CITY  CLEAR     55  27  34 NE14      30.24R

......IOWA............

CITY           SKY/WX    TMP DP  RH WIND       PRES   REMARKS
DES MOINES     NOT AVBL
QUAD CITIES    CLOUDY    33  30  88 NW13G22   30.06R WCI  24

......ILLINOIS........

CITY           SKY/WX    TMP DP  RH WIND       PRES   REMARKS
QUINCY         NOT AVBL
CHICAGO        LGT SNOW  33  32  96 NW13      29.92R FOG     WCI  24





USA.gov is the U.S. government's official web portal to all federal, state and local government web resources and services.